[[{"header":{"parameterUnit":"m.s-1","parameterCategory":1,"la1":30.2991,"la2":30.254,"lo1":-89.0895,"lo2":-89.0444,"dy":0.0017,"dx":0.0017,"nx":28,"ny":28,"refTime":"2025-08-01T03:00:00:Z","depth":0,"parameterNumber":2,"parameterNumberName":"U-component_of_WINDS"},"data":[0,0,0,0,0,0,0,0,0,0,0,0,0,0,0,0,0,0,0,0,0,0,0,0,0,0,0,0,0,0,0,0,0,0,0,0,0,0,0,0,0,0,0,0,0,0,0,0,0,0,0,0,0,0,0,0,0,0,-0.3749,-0.3749,0,-0.3752,-0.3752,-0.3752,-0.3767,-0.3768,-0.3768,-0.3769,-0.3771,-0.3771,-0.3771,0,0,0,0,0,0,0,0,0,0,0,0,0,-0.3751,-0.3751,-0.3749,-0.3749,-0.3749,-0.3752,-0.3752,-0.3753,-0.3767,-0.3768,-0.3768,-0.3769,-0.3771,-0.3771,-0.3771,0,0,0,0,0,0,0,0,0,0,0,0,0,-0.3752,-0.3751,-0.3749,-0.3757,-0.3757,-0.3752,-0.3752,-0.3753,-0.3767,-0.3768,-0.3768,-0.3769,-0.3772,-0.3771,-0.3771,-0.3758,0,0,-0.377,-0.3769,0,0,0,0,0,0,0,0,-0.3752,-0.3752,-0.3755,-0.3756,-0.3757,-0.376,-0.3754,-0.3754,-0.3767,-0.3764,-0.3769,-0.3769,-0.3767,-0.3767,-0.3767,-0.3758,-0.3758,-0.377,-0.3769,-0.3769,-0.3769,0,0,0,0,0,0,0,-0.3752,-0.3752,-0.375,-0.3755,-0.3756,-0.3759,-0.376,-0.3754,-0.3762,-0.3764,-0.3765,-0.3765,-0.3768,-0.3767,-0.3767,-0.3758,-0.377,-0.3769,-0.3769,-0.3769,-0.3736,-0.3735,0,0,0,0,0,0,-0.3751,-0.3752,-0.375,-0.375,-0.3756,-0.3759,-0.3759,-0.3758,-0.3762,-0.3764,-0.3765,-0.3766,-0.3767,-0.3767,-0.3767,-0.375,-0.3769,-0.3769,-0.3769,-0.3736,-0.3735,-0.3735,0,0,0,0,0,0,-0.3751,-0.3751,-0.375,-0.3751,-0.3751,-0.3758,-0.3757,-0.3758,-0.3758,-0.3763,-0.3764,-0.3763,-0.3768,-0.3767,-0.3759,-0.375,-0.3769,-0.3768,-0.3737,-0.3736,-0.3735,-0.3717,0,0,0,0,0,0,-0.3751,-0.3751,-0.3747,-0.3751,-0.3751,-0.3743,-0.3756,-0.3758,-0.3757,-0.3759,-0.3762,-0.3763,-0.3768,-0.376,-0.3759,-0.375,-0.3768,-0.3738,-0.3737,-0.3735,-0.3718,-0.3715,-0.3713,0,0,0,0,0,-0.3751,-0.3742,-0.3747,-0.3746,-0.3747,-0.3743,-0.3743,-0.3749,-0.3756,-0.3752,-0.3755,-0.3763,-0.3751,-0.3759,-0.3758,-0.3749,-0.3738,-0.3737,-0.3736,-0.3719,-0.3716,-0.3713,0,0,0,0,0,0,-0.3737,-0.3743,-0.3748,-0.374,-0.3741,-0.3745,-0.374,-0.3746,-0.3744,-0.3746,-0.3754,-0.3754,-0.3744,-0.3746,-0.3754,-0.3735,-0.3746,-0.3744,-0.3734,-0.3731,-0.3728,-0.3727,-0.3768,0,0,0,0,0,-0.3733,-0.373,-0.3735,-0.3728,-0.3728,-0.3734,-0.3732,-0.3737,-0.3738,-0.3738,-0.3741,-0.374,-0.3736,-0.3734,-0.3731,-0.3719,-0.3718,-0.3711,-0.3709,-0.3706,-0.3705,-0.3695,-0.3691,-0.373,-0.373,-0.373,0,0,-0.3725,-0.3728,-0.3726,-0.3725,-0.3726,-0.3721,-0.3734,-0.3729,-0.3725,-0.3737,-0.3729,-0.3731,-0.3731,-0.3719,-0.3715,-0.3721,-0.3693,-0.3705,-0.3703,-0.3702,-0.3693,-0.3689,-0.3686,-0.3729,-0.3729,-0.3729,0,0,-0.3707,-0.371,-0.3703,-0.3703,-0.3704,-0.3707,-0.3705,-0.3708,-0.3709,-0.3701,-0.3709,-0.3704,-0.3699,-0.3697,-0.3696,-0.3674,-0.368,-0.3673,-0.3658,-0.3648,-0.3645,-0.3643,-0.3632,-0.3629,-0.3671,-0.3671,-0.3671,0,-0.3697,-0.3691,-0.3698,-0.3692,-0.369,-0.3701,-0.3692,-0.3692,-0.3691,-0.3689,-0.3696,-0.3686,-0.3687,-0.3674,-0.3668,-0.3668,-0.3664,-0.3672,-0.3645,-0.3643,-0.364,-0.363,-0.3627,-0.367,-0.367,-0.367,-0.367,0,-0.3677,-0.3672,-0.3666,-0.3665,-0.3662,-0.3655,-0.366,-0.3656,-0.366,-0.3662,-0.3652,-0.3653,-0.3649,-0.3647,-0.3652,-0.3633,-0.3636,-0.3644,-0.3655,-0.3635,-0.3626,-0.3622,-0.3668,-0.3669,-0.3669,-0.3669,0,0,-0.3653,-0.3653,-0.365,-0.3648,-0.3649,-0.3645,-0.3636,-0.3632,-0.3627,-0.3626,-0.3618,-0.3611,-0.3617,-0.3615,-0.362,-0.3611,-0.359,-0.3619,-0.3619,-0.3612,-0.3566,-0.3559,-0.3555,-0.3594,-0.3594,-0.3593,-0.3565,0,-0.3634,-0.3621,-0.3625,-0.3611,-0.3605,-0.3613,-0.3605,-0.3604,-0.3605,-0.3599,-0.36,-0.3594,-0.3603,-0.3602,-0.3594,-0.3594,-0.3581,-0.3597,-0.3585,-0.3584,-0.3583,-0.3551,-0.3544,-0.3518,-0.3562,-0.3562,-0.3561,0,-0.3612,-0.3608,-0.3593,-0.359,-0.3588,-0.3582,-0.3576,-0.3571,-0.3568,-0.3569,-0.3565,-0.357,-0.356,-0.3571,-0.3556,-0.3566,-0.3561,-0.3561,-0.356,-0.3558,-0.3571,-0.3546,-0.351,-0.3505,-0.3556,-0.3557,-0.3557,0,-0.3592,-0.3584,-0.3573,-0.3571,-0.3569,-0.3563,-0.3562,-0.356,-0.3555,-0.355,-0.3547,-0.3541,-0.3537,-0.3531,-0.3533,-0.3542,-0.3516,-0.3529,-0.3515,-0.3514,-0.3508,-0.3508,-0.3469,-0.3508,-0.3508,-0.3508,-0.3508,0,-0.3571,-0.356,-0.3563,-0.3557,-0.3544,-0.3549,-0.3536,-0.3536,-0.3533,-0.3524,-0.3531,-0.3523,-0.3527,-0.3518,-0.352,-0.3505,-0.3504,-0.3503,-0.3503,-0.3501,-0.3501,-0.3497,-0.3498,-0.3507,-0.3508,-0.3508,-0.3508,0,-0.3547,-0.3549,-0.3537,-0.3535,-0.3534,-0.3525,-0.3523,-0.3515,-0.3516,-0.3504,-0.3502,-0.3503,-0.3492,-0.3494,-0.3483,-0.3484,-0.3464,-0.3468,-0.3465,-0.3465,-0.345,-0.345,-0.3406,-0.3399,-0.3444,-0.3444,-0.3443,0,-0.3533,-0.3525,-0.3521,-0.3516,-0.3514,-0.3506,-0.3501,-0.3504,-0.3498,-0.3492,-0.3484,-0.3474,-0.3467,-0.3449,-0.3448,-0.3439,-0.344,-0.3425,-0.3439,-0.3436,-0.3437,-0.3437,-0.3434,-0.3422,-0.3422,-0.3422,-0.3421,0,-0.3506,-0.3507,-0.35,-0.3491,-0.3485,-0.3479,-0.3474,-0.3469,-0.3471,-0.3464,-0.3453,-0.3447,-0.3434,-0.3423,-0.3413,-0.3411,-0.3415,-0.3417,-0.3412,-0.341,-0.3407,-0.3406,-0.3455,-0.3418,-0.3418,-0.3418,-0.3418,-0.3419,-0.3486,-0.3477,-0.3472,-0.3463,-0.3459,-0.3453,-0.3444,-0.3443,-0.3434,-0.3423,-0.3425,-0.3412,-0.3406,-0.3393,-0.3389,-0.3378,-0.3383,-0.3378,-0.3376,-0.3374,-0.3371,-0.341,-0.3376,-0.3376,-0.3376,-0.3377,-0.3377,0,-0.3457,-0.3454,-0.3445,-0.3436,-0.3428,-0.3433,-0.3426,-0.3418,-0.3406,-0.34,-0.3391,-0.3377,-0.3365,-0.3362,-0.335,-0.3341,-0.3343,-0.3338,-0.3338,-0.3336,-0.3368,-0.3372,-0.3337,-0.3337,-0.3337,-0.3337,-0.3337,-0.3337,-0.3442,-0.3427,-0.3426,-0.3408,-0.3404,-0.3391,-0.3386,-0.3379,-0.3374,-0.3357,-0.3347,-0.3345,-0.3338,-0.3326,-0.3314,-0.3313,-0.3307,-0.3301,-0.3301,-0.333,-0.3334,-0.3338,-0.3341,-0.33,-0.33,-0.3269,-0.3269,-0.3269]},{"header":{"parameterUnit":"m.s-1","parameterCategory":1,"la1":30.2991,"la2":30.254,"lo1":-89.0895,"lo2":-89.0444,"dy":0.0017,"dx":0.0017,"nx":28,"ny":28,"refTime":"2025-08-01T03:00:00:Z","depth":0,"parameterNumber":3,"parameterNumberName":"V-component_of_WINDS"},"data":[0,0,0,0,0,0,0,0,0,0,0,0,0,0,0,0,0,0,0,0,0,0,0,0,0,0,0,0,0,0,0,0,0,0,0,0,0,0,0,0,0,0,0,0,0,0,0,0,0,0,0,0,0,0,0,0,0,0,-2.0237,-2.0236,0,-2.0165,-2.0164,-2.0163,-2.0116,-2.0115,-2.0115,-2.0115,-2.0036,-2.0035,-2.0033,0,0,0,0,0,0,0,0,0,0,0,0,0,-2.0327,-2.0325,-2.0237,-2.0236,-2.0235,-2.0165,-2.0164,-2.0163,-2.0116,-2.0115,-2.0115,-2.0115,-2.0037,-2.0035,-2.0033,0,0,0,0,0,0,0,0,0,0,0,0,0,-2.0274,-2.0325,-2.0237,-2.0203,-2.0199,-2.0165,-2.0164,-2.0163,-2.0116,-2.0115,-2.0115,-2.0115,-2.0038,-2.0035,-2.0032,-2.0025,0,0,-2.0024,-2.0023,0,0,0,0,0,0,0,0,-2.0277,-2.0271,-2.0209,-2.0205,-2.0201,-2.0149,-2.0167,-2.0117,-2.0116,-2.0147,-2.0115,-2.0114,-2.0074,-2.0068,-2.0056,-2.0021,-2.0018,-2.0024,-2.0022,-2.0021,-2.002,0,0,0,0,0,0,0,-2.0281,-2.0274,-2.0208,-2.0208,-2.0203,-2.0189,-2.0182,-2.0157,-2.0114,-2.0145,-2.0141,-2.0133,-2.0072,-2.0058,-2.0053,-2.0017,-2.0024,-2.0022,-2.002,-2.0019,-1.9969,-1.9969,0,0,0,0,0,0,-2.0291,-2.0277,-2.0211,-2.0206,-2.0239,-2.0188,-2.0179,-2.0166,-2.0114,-2.0106,-2.0134,-2.0132,-2.0063,-2.0057,-2.0051,-2.0036,-2.0021,-2.0019,-2.0017,-1.9969,-1.9969,-1.9969,0,0,0,0,0,0,-2.0293,-2.0285,-2.0213,-2.0241,-2.023,-2.0187,-2.0173,-2.0165,-2.0152,-2.0106,-2.0098,-2.0129,-2.0063,-2.0054,-2.0031,-2.0033,-2.0017,-2.0015,-1.9968,-1.9969,-1.9969,-2.0009,0,0,0,0,0,0,-2.0296,-2.0286,-2.0285,-2.0241,-2.0229,-2.0198,-2.0173,-2.0164,-2.0148,-2.0144,-2.0099,-2.0091,-2.0062,-2.0036,-2.0029,-2.0029,-2.0013,-1.9968,-1.9968,-1.9969,-2.0007,-2.0011,-2.0014,0,0,0,0,0,-2.0299,-2.0298,-2.0285,-2.0277,-2.0227,-2.0198,-2.0191,-2.0159,-2.0148,-2.0145,-2.0115,-2.0092,-2.0034,-2.0034,-2.0025,-2.0025,-1.9968,-1.9968,-1.9969,-2.0006,-2.001,-2.0014,0,0,0,0,0,0,-2.0342,-2.0292,-2.0277,-2.0262,-2.0235,-2.019,-2.0185,-2.0164,-2.0138,-2.0135,-2.0095,-2.0085,-2.0065,-2.0043,-2.0043,-2.0013,-1.9998,-1.9997,-2.0029,-2.0032,-2.0035,-2.0041,-2.0011,0,0,0,0,0,-2.0351,-2.0333,-2.0289,-2.0281,-2.0268,-2.0229,-2.0215,-2.0193,-2.0162,-2.015,-2.0118,-2.0088,-2.0062,-2.0046,-2.002,-2.0004,-1.9992,-1.9999,-2.0002,-2.0005,-2.0004,-1.9991,-1.9993,-1.9971,-1.9971,-1.9971,0,0,-2.0366,-2.0337,-2.0328,-2.0289,-2.0265,-2.0245,-2.022,-2.0201,-2.0185,-2.0146,-2.0122,-2.0098,-2.0061,-2.0041,-2.003,-2.0021,-2.0007,-2.0006,-2.0008,-2.0006,-1.9992,-1.9994,-1.9996,-1.9972,-1.9972,-1.9972,0,0,-2.0386,-2.0363,-2.0352,-2.0328,-2.0293,-2.0267,-2.0264,-2.0222,-2.0205,-2.0181,-2.015,-2.0129,-2.0087,-2.0061,-2.0042,-2.0049,-2.0026,-2.0042,-2.0058,-2.0046,-2.0047,-2.0049,-2.0049,-2.005,-2.0041,-2.0042,-2.0042,0,-2.041,-2.0382,-2.0349,-2.0331,-2.0314,-2.0278,-2.0265,-2.0244,-2.0201,-2.0188,-2.0179,-2.0123,-2.0096,-2.0068,-2.0069,-2.0056,-2.0049,-2.0047,-2.005,-2.0051,-2.0052,-2.0051,-2.0052,-2.0044,-2.0043,-2.0043,-2.0043,0,-2.0412,-2.0392,-2.0387,-2.0348,-2.033,-2.0315,-2.0277,-2.0262,-2.0241,-2.0215,-2.0189,-2.0154,-2.012,-2.0111,-2.009,-2.0079,-2.0074,-2.0058,-2.0042,-2.0056,-2.0055,-2.0055,-2.0046,-2.0046,-2.0045,-2.0045,0,0,-2.0456,-2.0399,-2.0397,-2.0378,-2.0335,-2.0318,-2.03,-2.0268,-2.0255,-2.0226,-2.0208,-2.0172,-2.0156,-2.0135,-2.0109,-2.0099,-2.0103,-2.0083,-2.0082,-2.0087,-2.0086,-2.0098,-2.0099,-2.0088,-2.0088,-2.0088,-2.0089,0,-2.0468,-2.0436,-2.0405,-2.0384,-2.0364,-2.0329,-2.0313,-2.0283,-2.0258,-2.0236,-2.0206,-2.0181,-2.0163,-2.015,-2.0138,-2.0106,-2.0102,-2.0105,-2.0068,-2.0068,-2.0078,-2.0099,-2.0111,-2.0114,-2.0088,-2.0088,-2.0088,0,-2.0477,-2.0451,-2.0428,-2.0385,-2.0376,-2.0363,-2.0329,-2.0309,-2.0273,-2.0255,-2.0231,-2.0204,-2.018,-2.0167,-2.0132,-2.0134,-2.0117,-2.0099,-2.0098,-2.0092,-2.0079,-2.0092,-2.0115,-2.0115,-2.0088,-2.0088,-2.0088,0,-2.051,-2.0469,-2.0449,-2.0434,-2.0384,-2.0375,-2.0354,-2.0318,-2.03,-2.027,-2.0257,-2.0224,-2.0205,-2.0179,-2.0142,-2.0136,-2.011,-2.0094,-2.0092,-2.0093,-2.0088,-2.0089,-2.0106,-2.0079,-2.0079,-2.0079,-2.0079,0,-2.0525,-2.0512,-2.0463,-2.0451,-2.0434,-2.0397,-2.038,-2.0355,-2.0324,-2.0304,-2.0271,-2.0253,-2.0207,-2.0182,-2.0153,-2.0127,-2.0119,-2.0101,-2.0094,-2.0104,-2.0106,-2.0092,-2.009,-2.0079,-2.0079,-2.0079,-2.0079,0,-2.0559,-2.0526,-2.0502,-2.0457,-2.0445,-2.0434,-2.0394,-2.038,-2.0352,-2.0327,-2.0319,-2.0275,-2.0244,-2.0205,-2.0161,-2.0142,-2.0118,-2.0107,-2.013,-2.0126,-2.0125,-2.0125,-2.0134,-2.0132,-2.0107,-2.0107,-2.0108,0,-2.057,-2.0559,-2.0513,-2.0499,-2.0479,-2.0456,-2.0437,-2.0399,-2.0381,-2.0339,-2.0328,-2.0295,-2.0266,-2.0217,-2.018,-2.0145,-2.0132,-2.0137,-2.0126,-2.0136,-2.013,-2.0131,-2.0128,-2.014,-2.014,-2.0141,-2.0141,0,-2.0593,-2.0577,-2.0553,-2.0522,-2.0501,-2.0475,-2.0447,-2.0436,-2.0392,-2.0372,-2.0341,-2.0319,-2.0274,-2.024,-2.02,-2.0175,-2.0149,-2.0145,-2.0142,-2.0152,-2.0166,-2.0156,-2.0137,-2.0145,-2.0144,-2.0144,-2.0144,-2.0144,-2.0614,-2.0603,-2.0568,-2.0542,-2.0517,-2.0491,-2.0475,-2.0446,-2.042,-2.0382,-2.036,-2.0329,-2.0291,-2.0235,-2.021,-2.0183,-2.0174,-2.0171,-2.017,-2.0169,-2.0171,-2.0171,-2.0176,-2.0175,-2.0175,-2.0175,-2.0175,0,-2.0634,-2.0611,-2.0587,-2.0549,-2.0527,-2.0508,-2.0475,-2.0458,-2.0431,-2.0399,-2.0372,-2.0334,-2.0301,-2.026,-2.0223,-2.0209,-2.0196,-2.02,-2.02,-2.0194,-2.0182,-2.0188,-2.0211,-2.0211,-2.0211,-2.0211,-2.0211,-2.0211,-2.0642,-2.0621,-2.06,-2.0565,-2.054,-2.0511,-2.0494,-2.0469,-2.0443,-2.0404,-2.0377,-2.0351,-2.0314,-2.0274,-2.0241,-2.023,-2.0217,-2.0224,-2.0209,-2.0199,-2.0196,-2.0193,-2.0197,-2.0222,-2.0222,-2.0223,-2.0223,-2.0223]}]]